DBR702 KBFI-KMRY

Flight info

Callsign DBR702
Flight time 1h 43m
Altitude 41000
Route CBAIN1 CBAIN ELMAA Q1 PYE V27 SHOEY ZEBED
Aircraft CL30/M-SDE3FGJ4P2RWXY/SD1

Departure

Time 2026-04-24 19:44
Airport King County International Airport - Boeing Field (KBFI)

Arrival

Time 2026-04-24 21:28
Airport Monterey Regional Airport (KMRY)
Time Latitude Longitude Altitude Speed Heading
2026-04-24 19:27 47.53809 -122.30617 26 ft 0 kts 156°
2026-04-24 19:35 47.53803 -122.30613 26 ft 4 kts 156°
2026-04-24 19:35 47.53763 -122.30650 26 ft 11 kts 235°
2026-04-24 19:36 47.53725 -122.30748 26 ft 11 kts 240°
2026-04-24 19:36 47.53687 -122.30848 26 ft 11 kts 241°
2026-04-24 19:36 47.53649 -122.30948 26 ft 11 kts 227°
2026-04-24 19:36 47.53594 -122.30929 26 ft 9 kts 151°
2026-04-24 19:37 47.53500 -122.30851 26 ft 20 kts 151°
2026-04-24 19:37 47.53382 -122.30750 26 ft 20 kts 150°
2026-04-24 19:37 47.53809 -122.30617 25 ft 0 kts 156°
2026-04-24 19:38 47.53693 -122.31010 26 ft 0 kts 151°
2026-04-24 19:38 47.53086 -122.30509 26 ft 0 kts 151°
2026-04-24 19:38 47.53070 -122.30494 26 ft 7 kts 149°
2026-04-24 19:39 47.52994 -122.30426 26 ft 21 kts 150°
2026-04-24 19:39 47.52878 -122.30329 26 ft 19 kts 150°
2026-04-24 19:39 47.52763 -122.30233 26 ft 19 kts 150°
2026-04-24 19:39 47.52647 -122.30136 26 ft 19 kts 150°
2026-04-24 19:40 47.52530 -122.30039 26 ft 19 kts 150°
2026-04-24 19:40 47.52410 -122.29940 26 ft 20 kts 150°
2026-04-24 19:40 47.52291 -122.29842 26 ft 20 kts 150°
2026-04-24 19:40 47.52190 -122.29757 26 ft 19 kts 150°
2026-04-24 19:41 47.52075 -122.29662 26 ft 19 kts 150°
2026-04-24 19:41 47.51958 -122.29564 26 ft 19 kts 150°
2026-04-24 19:41 47.51838 -122.29465 26 ft 20 kts 151°
2026-04-24 19:41 47.51720 -122.29367 26 ft 20 kts 150°
2026-04-24 19:42 47.51651 -122.29300 26 ft 6 kts 107°
2026-04-24 19:42 47.51660 -122.29252 26 ft 0 kts 55°
2026-04-24 19:43 47.51674 -122.29221 26 ft 9 kts 55°
2026-04-24 19:43 47.51721 -122.29196 26 ft 8 kts 331°
2026-04-24 19:43 47.51774 -122.29240 26 ft 18 kts 330°
2026-04-24 19:43 47.52166 -122.29573 26 ft 116 kts 330°
2026-04-24 19:44 47.53166 -122.30420 218 ft 203 kts 330°
2026-04-24 19:44 47.54472 -122.31515 509 ft 210 kts 330°
2026-04-24 19:44 47.55706 -122.32550 744 ft 205 kts 329°
2026-04-24 19:44 47.56944 -122.33603 994 ft 204 kts 328°
2026-04-24 19:45 47.58145 -122.34694 1240 ft 204 kts 324°
2026-04-24 19:45 47.59249 -122.36010 1492 ft 203 kts 317°
2026-04-24 19:45 47.60253 -122.37496 1742 ft 204 kts 313°
2026-04-24 19:45 47.61190 -122.39081 2144 ft 206 kts 310°
2026-04-24 19:46 47.62205 -122.40825 2698 ft 235 kts 311°
2026-04-24 19:46 47.63114 -122.42889 3325 ft 246 kts 293°
2026-04-24 19:46 47.63569 -122.45368 3970 ft 256 kts 282°
2026-04-24 19:46 47.63857 -122.47995 4602 ft 261 kts 279°
2026-04-24 19:47 47.64094 -122.50722 4963 ft 273 kts 278°
2026-04-24 19:47 47.64302 -122.53538 4991 ft 275 kts 275°
2026-04-24 19:47 47.63965 -122.56237 5464 ft 269 kts 250°
2026-04-24 19:47 47.63136 -122.58772 6102 ft 275 kts 242°
2026-04-24 19:48 47.62153 -122.61241 6734 ft 278 kts 239°
2026-04-24 19:48 47.61127 -122.63659 7356 ft 282 kts 238°
2026-04-24 19:48 47.58972 -122.68588 8609 ft 288 kts 237°
2026-04-24 19:49 47.56739 -122.73603 9867 ft 295 kts 238°
2026-04-24 19:49 47.53991 -122.78423 11358 ft 324 kts 229°
2026-04-24 19:50 47.49112 -122.85947 13779 ft 349 kts 232°
2026-04-24 19:50 47.47459 -122.88646 14586 ft 354 kts 232°
2026-04-24 19:51 47.44110 -122.94116 16193 ft 365 kts 232°
2026-04-24 19:51 47.42385 -122.96911 16999 ft 369 kts 233°
2026-04-24 19:52 47.38853 -123.02568 18607 ft 379 kts 233°
2026-04-24 19:52 47.37063 -123.05408 19403 ft 384 kts 232°
2026-04-24 19:52 47.35225 -123.08314 20208 ft 388 kts 232°
2026-04-24 19:52 47.33362 -123.11252 21014 ft 393 kts 232°
2026-04-24 19:53 47.31503 -123.14179 21809 ft 397 kts 232°
2026-04-24 19:53 47.29602 -123.17169 22612 ft 401 kts 232°
2026-04-24 19:53 47.25752 -123.23212 24213 ft 410 kts 232°
2026-04-24 19:54 47.23775 -123.26307 25021 ft 415 kts 232°
2026-04-24 19:54 47.21782 -123.29427 25827 ft 419 kts 232°
2026-04-24 19:54 47.19791 -123.32541 26623 ft 424 kts 232°
2026-04-24 19:54 47.17758 -123.35717 27421 ft 428 kts 232°
2026-04-24 19:55 47.16372 -123.37826 27854 ft 435 kts 230°
2026-04-24 19:55 47.12906 -123.41055 28564 ft 459 kts 205°
2026-04-24 19:55 47.09745 -123.42100 29078 ft 471 kts 187°
2026-04-24 19:55 47.06431 -123.42095 29594 ft 478 kts 177°
2026-04-24 19:56 47.03145 -123.41568 30097 ft 481 kts 172°
2026-04-24 19:56 46.99818 -123.40778 30603 ft 483 kts 170°
2026-04-24 19:56 46.96468 -123.40112 31107 ft 485 kts 174°
2026-04-24 19:56 46.93142 -123.39730 31604 ft 486 kts 177°
2026-04-24 19:57 46.89748 -123.39497 32108 ft 488 kts 179°
2026-04-24 19:57 46.86336 -123.39357 32612 ft 488 kts 180°
2026-04-24 19:57 46.82967 -123.39271 33108 ft 488 kts 180°
2026-04-24 19:57 46.79564 -123.39213 33610 ft 488 kts 181°
2026-04-24 19:58 46.76160 -123.39169 34111 ft 487 kts 181°
2026-04-24 19:58 46.72763 -123.39129 34613 ft 486 kts 181°
2026-04-24 19:58 46.69417 -123.39088 35108 ft 484 kts 181°
2026-04-24 19:58 46.66046 -123.39042 35609 ft 482 kts 181°
2026-04-24 19:59 46.62691 -123.38991 36109 ft 480 kts 181°
2026-04-24 19:59 46.59350 -123.38934 36610 ft 478 kts 180°
2026-04-24 19:59 46.56073 -123.38871 37104 ft 475 kts 180°
2026-04-24 19:59 46.52764 -123.38802 37606 ft 472 kts 180°
2026-04-24 20:00 46.49487 -123.38729 38105 ft 468 kts 180°
2026-04-24 20:00 46.46261 -123.38652 38601 ft 465 kts 180°
2026-04-24 20:00 46.43032 -123.38572 39102 ft 461 kts 180°
2026-04-24 20:00 46.39837 -123.38489 39600 ft 457 kts 180°
2026-04-24 20:01 46.36674 -123.38404 40098 ft 453 kts 180°
2026-04-24 20:01 46.33534 -123.38318 40597 ft 448 kts 180°
2026-04-24 20:01 46.30457 -123.38232 40989 ft 447 kts 180°
2026-04-24 20:01 46.27321 -123.38144 41107 ft 452 kts 180°
2026-04-24 20:02 46.25218 -123.38085 41155 ft 457 kts 180°
2026-04-24 20:02 46.17663 -123.37870 41159 ft 473 kts 180°
2026-04-24 20:03 46.11048 -123.37677 41154 ft 480 kts 180°
2026-04-24 20:03 46.04344 -123.37477 41143 ft 479 kts 180°
2026-04-24 20:04 45.97720 -123.37275 41139 ft 479 kts 180°
2026-04-24 20:04 45.91041 -123.37071 41136 ft 479 kts 180°
2026-04-24 20:05 45.84401 -123.36869 41132 ft 478 kts 180°
2026-04-24 20:05 45.77746 -123.36667 41130 ft 478 kts 180°
2026-04-24 20:06 45.71100 -123.36467 41117 ft 478 kts 180°
2026-04-24 20:06 45.64437 -123.36266 41113 ft 478 kts 180°
2026-04-24 20:07 45.58884 -123.36099 41112 ft 478 kts 180°
2026-04-24 20:07 45.51136 -123.35866 41109 ft 478 kts 180°
2026-04-24 20:08 45.44531 -123.35669 41105 ft 477 kts 180°
2026-04-24 20:08 45.37891 -123.35470 41101 ft 477 kts 180°
2026-04-24 20:09 45.31235 -123.35272 41098 ft 477 kts 180°
2026-04-24 20:09 45.24585 -123.35074 41095 ft 477 kts 180°
2026-04-24 20:10 45.17966 -123.34877 41094 ft 476 kts 181°
2026-04-24 20:10 45.11363 -123.34682 41093 ft 476 kts 181°
2026-04-24 20:11 45.04773 -123.34487 41094 ft 475 kts 181°
2026-04-24 20:11 44.98132 -123.34292 41096 ft 475 kts 181°
2026-04-24 20:12 44.91535 -123.34098 41097 ft 475 kts 181°
2026-04-24 20:12 44.86066 -123.33938 41100 ft 474 kts 181°
2026-04-24 20:13 44.78362 -123.33712 41101 ft 474 kts 181°
2026-04-24 20:13 44.71790 -123.33521 41101 ft 474 kts 181°
2026-04-24 20:14 44.65190 -123.33329 41100 ft 473 kts 181°
2026-04-24 20:14 44.58630 -123.33138 41100 ft 473 kts 181°
2026-04-24 20:15 44.52055 -123.32943 41099 ft 473 kts 181°
2026-04-24 20:15 44.45506 -123.32712 41098 ft 472 kts 181°
2026-04-24 20:16 44.38921 -123.32455 41095 ft 472 kts 181°
2026-04-24 20:16 44.32373 -123.32190 41072 ft 472 kts 181°
2026-04-24 20:17 44.25829 -123.31923 41064 ft 471 kts 181°
2026-04-24 20:17 44.15989 -123.31525 41060 ft 471 kts 180°
2026-04-24 20:18 44.09473 -123.31265 41059 ft 470 kts 181°
2026-04-24 20:18 44.03987 -123.31047 41059 ft 470 kts 181°
2026-04-24 20:19 43.97457 -123.30788 41059 ft 470 kts 181°
2026-04-24 20:19 43.90958 -123.30530 41056 ft 469 kts 181°
2026-04-24 20:20 43.84432 -123.30273 41054 ft 468 kts 181°
2026-04-24 20:20 43.77953 -123.30018 41052 ft 468 kts 181°
2026-04-24 20:21 43.71433 -123.29762 41050 ft 467 kts 181°
2026-04-24 20:21 43.64928 -123.29507 41049 ft 467 kts 181°
2026-04-24 20:22 43.58455 -123.29255 41048 ft 467 kts 181°
2026-04-24 20:22 43.51952 -123.29001 41047 ft 467 kts 181°
2026-04-24 20:23 43.45482 -123.28749 41047 ft 467 kts 181°
2026-04-24 20:23 43.38969 -123.28496 41047 ft 467 kts 181°
2026-04-24 20:24 43.32499 -123.28245 41048 ft 466 kts 181°
2026-04-24 20:24 43.26008 -123.27994 41048 ft 466 kts 181°
2026-04-24 20:25 43.19525 -123.27743 41048 ft 466 kts 181°
2026-04-24 20:25 43.13065 -123.27494 41047 ft 466 kts 181°
2026-04-24 20:26 43.06611 -123.27246 41043 ft 466 kts 181°
2026-04-24 20:26 43.00137 -123.26998 41037 ft 465 kts 181°
2026-04-24 20:27 42.93646 -123.26749 41028 ft 465 kts 181°
2026-04-24 20:27 42.87213 -123.26504 41020 ft 465 kts 181°
2026-04-24 20:28 42.80743 -123.26257 41013 ft 464 kts 181°
2026-04-24 20:28 42.74279 -123.26011 41009 ft 464 kts 181°
2026-04-24 20:29 42.67839 -123.25766 41008 ft 463 kts 181°
2026-04-24 20:29 42.61417 -123.25523 41007 ft 463 kts 181°
2026-04-24 20:30 42.54985 -123.25280 41006 ft 463 kts 181°
2026-04-24 20:30 42.48537 -123.25037 41003 ft 462 kts 181°
2026-04-24 20:31 42.42126 -123.24798 40997 ft 462 kts 181°
2026-04-24 20:31 42.35705 -123.24560 40991 ft 462 kts 181°
2026-04-24 20:32 42.29264 -123.24323 40985 ft 462 kts 181°
2026-04-24 20:32 42.22863 -123.24088 40983 ft 461 kts 181°
2026-04-24 20:33 42.16459 -123.23853 40982 ft 461 kts 181°
2026-04-24 20:33 42.10024 -123.23617 40983 ft 461 kts 181°
2026-04-24 20:34 42.03637 -123.23383 40984 ft 461 kts 181°
2026-04-24 20:34 41.97201 -123.23149 40985 ft 461 kts 181°
2026-04-24 20:35 41.90828 -123.22917 40986 ft 460 kts 181°
2026-04-24 20:35 41.84449 -123.22684 40987 ft 459 kts 181°
2026-04-24 20:36 41.78038 -123.22451 40987 ft 459 kts 181°
2026-04-24 20:36 41.71684 -123.22221 40986 ft 459 kts 181°
2026-04-24 20:37 41.65285 -123.21990 40983 ft 459 kts 181°
2026-04-24 20:37 41.58920 -123.21765 40980 ft 459 kts 181°
2026-04-24 20:38 41.52558 -123.21542 40987 ft 459 kts 181°
2026-04-24 20:38 41.46158 -123.21321 40987 ft 459 kts 181°
2026-04-24 20:39 41.39806 -123.21103 40986 ft 459 kts 181°
2026-04-24 20:39 41.33442 -123.20896 40984 ft 458 kts 181°
2026-04-24 20:40 41.27056 -123.20719 40981 ft 458 kts 181°
2026-04-24 20:40 41.20665 -123.20553 40979 ft 458 kts 182°
2026-04-24 20:41 41.14306 -123.20393 40976 ft 458 kts 182°
2026-04-24 20:41 41.07972 -123.20234 40971 ft 458 kts 182°
2026-04-24 20:42 41.01584 -123.20075 40966 ft 458 kts 182°
2026-04-24 20:42 40.95243 -123.19916 40963 ft 458 kts 182°
2026-04-24 20:43 40.88882 -123.19757 40959 ft 457 kts 182°
2026-04-24 20:43 40.82507 -123.19597 40955 ft 457 kts 182°
2026-04-24 20:44 40.76166 -123.19439 40953 ft 457 kts 182°
2026-04-24 20:44 40.69797 -123.19280 40951 ft 457 kts 182°
2026-04-24 20:45 40.63461 -123.19123 40951 ft 457 kts 182°
2026-04-24 20:45 40.57089 -123.18964 40953 ft 457 kts 182°
2026-04-24 20:46 40.50759 -123.18806 40951 ft 457 kts 182°
2026-04-24 20:46 40.44411 -123.18649 40954 ft 456 kts 182°
2026-04-24 20:47 40.38041 -123.18492 40956 ft 456 kts 182°
2026-04-24 20:47 40.31719 -123.18336 40958 ft 456 kts 182°
2026-04-24 20:48 40.25363 -123.18179 40960 ft 456 kts 182°
2026-04-24 20:48 40.18994 -123.18022 40961 ft 456 kts 182°
2026-04-24 20:49 40.12677 -123.17867 40963 ft 456 kts 182°
2026-04-24 20:49 40.06319 -123.17711 40964 ft 456 kts 182°
2026-04-24 20:50 39.99970 -123.17555 40964 ft 456 kts 182°
2026-04-24 20:50 39.93618 -123.17339 40963 ft 456 kts 181°
2026-04-24 20:51 39.87300 -123.17070 40962 ft 455 kts 181°
2026-04-24 20:51 39.80962 -123.16780 40960 ft 455 kts 181°
2026-04-24 20:52 39.74668 -123.16485 40963 ft 455 kts 181°
2026-04-24 20:52 39.68325 -123.16188 40962 ft 455 kts 181°
2026-04-24 20:53 39.62002 -123.15894 40959 ft 455 kts 181°
2026-04-24 20:53 39.55678 -123.15600 40956 ft 454 kts 181°
2026-04-24 20:54 39.49390 -123.15310 40954 ft 454 kts 181°
2026-04-24 20:54 39.43071 -123.15020 40951 ft 454 kts 182°
2026-04-24 20:55 39.36747 -123.14730 40948 ft 454 kts 182°
2026-04-24 20:55 39.30429 -123.14441 40945 ft 454 kts 182°
2026-04-24 20:56 39.24149 -123.14155 40942 ft 454 kts 182°
2026-04-24 20:56 39.17840 -123.13868 40941 ft 453 kts 182°
2026-04-24 20:57 39.11507 -123.13518 40940 ft 455 kts 179°
2026-04-24 20:57 39.05248 -123.12465 40943 ft 457 kts 174°
2026-04-24 20:58 38.98963 -123.10959 40943 ft 458 kts 173°
2026-04-24 20:58 38.92740 -123.09303 40946 ft 458 kts 172°
2026-04-24 20:59 38.86504 -123.07598 40953 ft 458 kts 172°
2026-04-24 20:59 38.80261 -123.05889 40962 ft 458 kts 172°
2026-04-24 21:00 38.74023 -123.04195 40972 ft 458 kts 172°
2026-04-24 21:00 38.67808 -123.02522 40981 ft 458 kts 173°
2026-04-24 21:01 38.61557 -123.00852 40981 ft 458 kts 173°
2026-04-24 21:01 38.55335 -122.99199 40976 ft 458 kts 173°
2026-04-24 21:02 38.49094 -122.97549 40977 ft 458 kts 173°
2026-04-24 21:02 38.42883 -122.95913 40980 ft 458 kts 173°
2026-04-24 21:03 38.36647 -122.94274 40981 ft 457 kts 173°
2026-04-24 21:03 38.30376 -122.92634 40513 ft 464 kts 173°
2026-04-24 21:04 38.27215 -122.91808 40022 ft 461 kts 173°
2026-04-24 21:04 38.24118 -122.90997 39530 ft 457 kts 173°
2026-04-24 21:04 38.21016 -122.90183 39030 ft 453 kts 173°
2026-04-24 21:04 38.17923 -122.89372 38527 ft 450 kts 173°
2026-04-24 21:05 38.14842 -122.88568 38025 ft 452 kts 173°
2026-04-24 21:05 38.11785 -122.87767 37531 ft 455 kts 172°
2026-04-24 21:05 38.08752 -122.86474 37028 ft 462 kts 160°
2026-04-24 21:05 38.05923 -122.84569 36558 ft 466 kts 153°
2026-04-24 21:06 38.03183 -122.82288 36106 ft 473 kts 148°
2026-04-24 21:06 38.00529 -122.79832 35660 ft 477 kts 146°
2026-04-24 21:06 37.97894 -122.77258 35211 ft 478 kts 146°
2026-04-24 21:06 37.95277 -122.74642 34761 ft 478 kts 145°
2026-04-24 21:07 37.92673 -122.72029 34311 ft 477 kts 145°
2026-04-24 21:07 37.90070 -122.69429 33861 ft 475 kts 145°
2026-04-24 21:07 37.87471 -122.66860 33411 ft 472 kts 145°
2026-04-24 21:07 37.84911 -122.64360 32965 ft 468 kts 145°
2026-04-24 21:08 37.82314 -122.61857 32512 ft 464 kts 146°
2026-04-24 21:08 37.79769 -122.59435 32065 ft 459 kts 146°
2026-04-24 21:08 37.77210 -122.57029 31613 ft 455 kts 146°
2026-04-24 21:08 37.74667 -122.54663 31161 ft 450 kts 146°
2026-04-24 21:09 37.72146 -122.52339 30709 ft 446 kts 146°
2026-04-24 21:09 37.69682 -122.50088 30265 ft 441 kts 146°
2026-04-24 21:09 37.67205 -122.47841 29814 ft 436 kts 146°
2026-04-24 21:09 37.64741 -122.45620 29362 ft 432 kts 146°
2026-04-24 21:10 37.62293 -122.43425 28892 ft 429 kts 146°
2026-04-24 21:10 37.59881 -122.41272 28401 ft 426 kts 147°
2026-04-24 21:10 37.57456 -122.39116 27898 ft 423 kts 147°
2026-04-24 21:10 37.55085 -122.37016 27403 ft 420 kts 147°
2026-04-24 21:11 37.52689 -122.34900 26900 ft 418 kts 147°
2026-04-24 21:11 37.50315 -122.32808 26399 ft 415 kts 147°
2026-04-24 21:11 37.47974 -122.30750 25903 ft 413 kts 147°
2026-04-24 21:11 37.45618 -122.28683 25401 ft 411 kts 147°
2026-04-24 21:12 37.43269 -122.26626 24898 ft 408 kts 147°
2026-04-24 21:12 37.41715 -122.25267 24563 ft 407 kts 147°
2026-04-24 21:12 37.38632 -122.22574 23896 ft 404 kts 147°
2026-04-24 21:12 37.36326 -122.20563 23395 ft 402 kts 147°
2026-04-24 21:13 37.34061 -122.18588 22900 ft 399 kts 147°
2026-04-24 21:13 37.31786 -122.16609 22399 ft 396 kts 147°
2026-04-24 21:13 37.29529 -122.14646 21899 ft 393 kts 147°
2026-04-24 21:13 37.27282 -122.12694 21397 ft 390 kts 146°
2026-04-24 21:14 37.25075 -122.10778 20900 ft 387 kts 146°
2026-04-24 21:14 37.22864 -122.08860 20398 ft 384 kts 146°
2026-04-24 21:14 37.20674 -122.06961 19897 ft 381 kts 146°
2026-04-24 21:14 37.18493 -122.05072 19394 ft 378 kts 146°
2026-04-24 21:15 37.16362 -122.03227 18899 ft 375 kts 146°
2026-04-24 21:15 37.14210 -122.01366 18395 ft 371 kts 146°
2026-04-24 21:15 37.12146 -121.99581 17900 ft 356 kts 146°
2026-04-24 21:15 37.10146 -121.97850 17395 ft 341 kts 146°
2026-04-24 21:16 37.08242 -121.96203 16896 ft 330 kts 146°
2026-04-24 21:16 37.06375 -121.94589 16393 ft 322 kts 147°
2026-04-24 21:16 37.04564 -121.93026 15895 ft 316 kts 147°
2026-04-24 21:16 37.02758 -121.91468 15393 ft 312 kts 147°
2026-04-24 21:17 37.00977 -121.89934 14891 ft 308 kts 147°
2026-04-24 21:17 36.99219 -121.88421 14390 ft 305 kts 147°
2026-04-24 21:17 36.97473 -121.86919 13888 ft 302 kts 147°
2026-04-24 21:17 36.96326 -121.85933 13555 ft 300 kts 147°
2026-04-24 21:18 36.94049 -121.83977 12890 ft 297 kts 148°
2026-04-24 21:18 36.92368 -121.82533 12393 ft 294 kts 148°
2026-04-24 21:18 36.90675 -121.81080 11889 ft 292 kts 148°
2026-04-24 21:18 36.89025 -121.79666 11393 ft 289 kts 148°
2026-04-24 21:19 36.87363 -121.78243 10889 ft 287 kts 148°
2026-04-24 21:19 36.85733 -121.76849 10393 ft 285 kts 147°
2026-04-24 21:19 36.84100 -121.75453 9891 ft 283 kts 147°
2026-04-24 21:19 36.82475 -121.74063 9388 ft 281 kts 147°
2026-04-24 21:20 36.79289 -121.71340 8392 ft 277 kts 146°
2026-04-24 21:20 36.77706 -121.69985 7892 ft 275 kts 146°
2026-04-24 21:20 36.76129 -121.68636 7390 ft 272 kts 146°
2026-04-24 21:21 36.74585 -121.67317 6887 ft 263 kts 147°
2026-04-24 21:21 36.73105 -121.66051 6388 ft 256 kts 147°
2026-04-24 21:21 36.71652 -121.64810 5888 ft 251 kts 147°
2026-04-24 21:21 36.70234 -121.63601 5391 ft 248 kts 147°
2026-04-24 21:22 36.68804 -121.62393 4885 ft 245 kts 148°
2026-04-24 21:22 36.67273 -121.61750 4596 ft 219 kts 177°
2026-04-24 21:22 36.65893 -121.62203 4518 ft 203 kts 210°
2026-04-24 21:22 36.65117 -121.62877 4508 ft 200 kts 219°
2026-04-24 21:23 36.63738 -121.64355 4492 ft 195 kts 224°
2026-04-24 21:23 36.63067 -121.65107 4409 ft 196 kts 224°
2026-04-24 21:23 36.61832 -121.66492 4139 ft 174 kts 224°
2026-04-24 21:23 36.60931 -121.67491 3884 ft 172 kts 224°
2026-04-24 21:24 36.60063 -121.68443 3626 ft 163 kts 224°
2026-04-24 21:24 36.59277 -121.69400 3351 ft 153 kts 234°
2026-04-24 21:24 36.58862 -121.70096 3186 ft 148 kts 238°
2026-04-24 21:24 36.58082 -121.71462 2844 ft 143 kts 239°
2026-04-24 21:25 36.57703 -121.72124 2676 ft 140 kts 239°
2026-04-24 21:25 36.57194 -121.73134 2397 ft 135 kts 250°
2026-04-24 21:25 36.56930 -121.74245 2167 ft 132 kts 259°
2026-04-24 21:25 36.56789 -121.75350 1936 ft 129 kts 267°
2026-04-24 21:26 36.56743 -121.76455 1746 ft 126 kts 269°
2026-04-24 21:26 36.56834 -121.77524 1565 ft 125 kts 278°
2026-04-24 21:26 36.56970 -121.78601 1365 ft 125 kts 279°
2026-04-24 21:26 36.57127 -121.79663 1157 ft 126 kts 284°
2026-04-24 21:27 36.57425 -121.80682 957 ft 124 kts 291°
2026-04-24 21:27 36.57762 -121.81667 720 ft 123 kts 293°
2026-04-24 21:27 36.58094 -121.82642 477 ft 122 kts 292°
2026-04-24 21:27 36.58416 -121.83596 290 ft 118 kts 292°
2026-04-24 21:28 36.58694 -121.84420 265 ft 81 kts 292°
2026-04-24 21:28 36.58849 -121.84878 265 ft 42 kts 292°
2026-04-24 21:28 36.58956 -121.85197 265 ft 37 kts 292°
2026-04-24 21:28 36.58987 -121.85325 265 ft 4 kts 234°
2026-04-24 21:29 36.58944 -121.85346 265 ft 8 kts 199°
2026-04-24 21:29 36.58887 -121.85370 265 ft 9 kts 184°
2026-04-24 21:29 36.58841 -121.85416 265 ft 10 kts 251°
2026-04-24 21:29 36.58841 -121.85444 265 ft 2 kts 316°
2026-04-24 21:30 36.58851 -121.85447 265 ft 2 kts 349°
2026-04-24 21:30 36.58862 -121.85451 265 ft 1 kts 344°
2026-04-24 21:30 36.58863 -121.85451 265 ft 0 kts 344°
2026-04-24 21:30 36.58864 -121.85451 265 ft 0 kts 344°